When you browse on this site, cookies collect data to enhance your experience and personalize the content and advertising you see.
Visit our Privacy Policy to learn more. By continuing to use the site, you agree to this use of cookies and data.
  • In Hungary
  • List of Countries
  • For 7 days
  • Water Temperature
  • Satellite Maps
  • Weather Map
  • News
  • Weather Widgets
  • user-avatar
    Login

    Hourly Weather Chertovidovo

    Today, 26 May, Sunday

    Time Temperature Precipitation Wind Pressure Humidity
    00:00 +8°C° 0 mm 3 mps 748 mmHg 88%
    01:00 +8°C° 0 mm 2 mps 748 mmHg 91%
    02:00 +7°C° 0 mm 2 mps 748 mmHg 95%
    03:00 +7°C° 0 mm 2 mps 749 mmHg 94%
    04:00 +7°C° 0 mm 2 mps 749 mmHg 93%
    05:00 +7°C° 0 mm 2 mps 749 mmHg 92%
    06:00 +9°C° 0 mm 3 mps 749 mmHg 87%
    07:00 +10°C° 0 mm 3 mps 749 mmHg 81%
    08:00 +11°C° 0 mm 3 mps 748 mmHg 76%
    09:00 +13°C° 0 mm 3 mps 748 mmHg 70%
    10:00 +15°C° 0 mm 4 mps 748 mmHg 65%
    11:00 +17°C° 0 mm 4 mps 747 mmHg 60%
    12:00 +18°C° 0.2 mm 4 mps 747 mmHg 60%
    13:00 +17°C° 0.2 mm 5 mps 747 mmHg 61%
    14:00 +17°C° 0.2 mm 5 mps 746 mmHg 62%
    15:00 +17°C° 0.3 mm 6 mps 746 mmHg 64%
    16:00 +16°C° 0.3 mm 6 mps 746 mmHg 67%
    17:00 +15°C° 0.3 mm 6 mps 746 mmHg 69%
    18:00 +14°C° 0 mm 5 mps 746 mmHg 71%
    19:00 +13°C° 0 mm 5 mps 746 mmHg 74%
    20:00 +11°C° 0 mm 4 mps 746 mmHg 76%
    21:00 +11°C° 0 mm 4 mps 746 mmHg 77%
    22:00 +10°C° 0 mm 4 mps 746 mmHg 79%
    23:00 +8°C° 0 mm 5 mps 746 mmHg 80%

    Tomorrow, 27 May, Monday

    Time Temperature Precipitation Wind Pressure Humidity
    00:00 +9°C° 0.1 mm 5 mps 746 mmHg 83%
    01:00 +9°C° 0.1 mm 5 mps 746 mmHg 86%
    02:00 +9°C° 0.1 mm 5 mps 746 mmHg 88%
    03:00 +9°C° 0 mm 5 mps 746 mmHg 88%
    04:00 +10°C° 0 mm 4 mps 746 mmHg 89%
    05:00 +10°C° 0 mm 4 mps 746 mmHg 89%
    06:00 +10°C° 0 mm 4 mps 747 mmHg 84%
    07:00 +10°C° 0 mm 5 mps 747 mmHg 80%
    08:00 +12°C° 0 mm 5 mps 747 mmHg 75%
    09:00 +13°C° 0 mm 5 mps 747 mmHg 68%
    10:00 +15°C° 0 mm 5 mps 747 mmHg 62%
    11:00 +17°C° 0 mm 5 mps 748 mmHg 55%
    12:00 +15°C° 0.2 mm 4 mps 748 mmHg 63%
    13:00 +14°C° 0.2 mm 4 mps 748 mmHg 72%
    14:00 +13°C° 0.2 mm 3 mps 748 mmHg 80%
    15:00 +13°C° 0.5 mm 3 mps 748 mmHg 83%
    16:00 +14°C° 0.5 mm 3 mps 748 mmHg 85%
    17:00 +15°C° 0.5 mm 2 mps 748 mmHg 87%
    18:00 +15°C° 0 mm 2 mps 748 mmHg 90%
    19:00 +15°C° 0 mm 2 mps 748 mmHg 92%
    20:00 +15°C° 0 mm 2 mps 748 mmHg 95%
    21:00 +14°C° 0 mm 2 mps 748 mmHg 96%
    22:00 +13°C° 0 mm 3 mps 748 mmHg 96%
    23:00 +13°C° 0 mm 3 mps 748 mmHg 97%

    Day after tomorrow, 28 May, Tuesday

    Time Temperature Precipitation Wind Pressure Humidity
    00:00 +13°C° 0 mm 3 mps 749 mmHg 97%
    01:00 +13°C° 0 mm 3 mps 749 mmHg 97%
    02:00 +14°C° 0 mm 2 mps 749 mmHg 97%
    03:00 +14°C° 0 mm 2 mps 749 mmHg 97%
    04:00 +13°C° 0 mm 2 mps 750 mmHg 97%
    05:00 +13°C° 0 mm 2 mps 750 mmHg 97%
    06:00 +13°C° 0 mm 2 mps 750 mmHg 92%
    07:00 +14°C° 0 mm 2 mps 751 mmHg 87%
    08:00 +15°C° 0 mm 2 mps 751 mmHg 82%
    09:00 +16°C° 0 mm 2 mps 751 mmHg 75%
    10:00 +17°C° 0 mm 2 mps 751 mmHg 67%
    11:00 +19°C° 0 mm 2 mps 751 mmHg 59%
    12:00 +20°C° 0 mm 2 mps 751 mmHg 55%
    13:00 +22°C° 0 mm 1 mps 751 mmHg 52%
    14:00 +23°C° 0 mm 1 mps 751 mmHg 49%
    15:00 +20°C° 0.5 mm 2 mps 750 mmHg 61%
    16:00 +18°C° 0.5 mm 2 mps 750 mmHg 74%
    17:00 +16°C° 0.5 mm 2 mps 750 mmHg 87%
    18:00 +16°C° 0.2 mm 3 mps 749 mmHg 89%
    19:00 +14°C° 0.2 mm 3 mps 749 mmHg 92%
    20:00 +14°C° 0.2 mm 3 mps 749 mmHg 94%
    21:00 +15°C° 0 mm 2 mps 749 mmHg 96%
    22:00 +15°C° 0 mm 2 mps 748 mmHg 97%
    23:00 +15°C° 0 mm 2 mps 748 mmHg 98%

    29 May, Wednesday

    Time Temperature Precipitation Wind Pressure Humidity
    00:00 +16°C° 0.4 mm 2 mps 748 mmHg 98%
    01:00 +17°C° 0.4 mm 2 mps 748 mmHg 98%
    02:00 +17°C° 0.4 mm 2 mps 748 mmHg 98%
    03:00 +18°C° 0.1 mm 2 mps 748 mmHg 98%
    04:00 +18°C° 0.1 mm 3 mps 748 mmHg 98%
    05:00 +18°C° 0.1 mm 3 mps 748 mmHg 98%
    06:00 +19°C° 0 mm 3 mps 748 mmHg 94%
    07:00 +20°C° 0 mm 4 mps 748 mmHg 90%
    08:00 +21°C° 0 mm 4 mps 748 mmHg 86%
    09:00 +22°C° 0 mm 5 mps 748 mmHg 79%
    10:00 +23°C° 0 mm 5 mps 748 mmHg 73%
    11:00 +25°C° 0 mm 5 mps 748 mmHg 67%
    12:00 +26°C° 0.6 mm 6 mps 748 mmHg 67%
    13:00 +26°C° 0.6 mm 6 mps 748 mmHg 68%
    14:00 +26°C° 0.6 mm 6 mps 748 mmHg 69%
    15:00 +25°C° 2.2 mm 5 mps 748 mmHg 75%
    16:00 +23°C° 2.2 mm 4 mps 748 mmHg 81%
    17:00 +22°C° 2.2 mm 4 mps 748 mmHg 87%
    18:00 +21°C° 1.8 mm 3 mps 748 mmHg 89%
    19:00 +20°C° 1.8 mm 3 mps 748 mmHg 91%
    20:00 +19°C° 1.8 mm 2 mps 749 mmHg 92%
    21:00 +18°C° 0.5 mm 2 mps 749 mmHg 94%
    22:00 +18°C° 0.5 mm 2 mps 749 mmHg 95%
    23:00 +17°C° 0.5 mm 2 mps 749 mmHg 96%

    30 May, Thursday

    Time Temperature Precipitation Wind Pressure Humidity
    00:00 +17°C° 0.1 mm 2 mps 750 mmHg 96%
    01:00 +16°C° 0.1 mm 2 mps 750 mmHg 97%
    02:00 +16°C° 0.1 mm 2 mps 751 mmHg 97%
    03:00 +15°C° 0 mm 2 mps 751 mmHg 97%
    04:00 +15°C° 0 mm 2 mps 751 mmHg 97%
    05:00 +15°C° 0 mm 2 mps 752 mmHg 97%
    06:00 +15°C° 0 mm 2 mps 752 mmHg 96%
    07:00 +15°C° 0 mm 2 mps 752 mmHg 95%
    08:00 +15°C° 0 mm 2 mps 753 mmHg 94%
    09:00 +15°C° 0.1 mm 2 mps 753 mmHg 94%
    10:00 +14°C° 0.1 mm 2 mps 753 mmHg 94%
    11:00 +14°C° 0.1 mm 2 mps 753 mmHg 94%
    12:00 +12°C° 1.8 mm 3 mps 753 mmHg 94%
    13:00 +12°C° 1.8 mm 3 mps 753 mmHg 95%
    14:00 +11°C° 1.8 mm 4 mps 754 mmHg 95%
    15:00 +13°C° 0 mm 4 mps 754 mmHg 88%
    16:00 +14°C° 0 mm 3 mps 754 mmHg 82%
    17:00 +16°C° 0 mm 3 mps 755 mmHg 75%
    18:00 +14°C° 0.1 mm 3 mps 755 mmHg 79%
    19:00 +14°C° 0.1 mm 2 mps 755 mmHg 83%
    20:00 +14°C° 0.1 mm 1 mps 756 mmHg 87%
    21:00 +12°C° 0 mm 2 mps 756 mmHg 87%
    22:00 +10°C° 0 mm 2 mps 757 mmHg 87%
    23:00 +8°C° 0 mm 2 mps 757 mmHg 87%

    31 May, Friday

    Time Temperature Precipitation Wind Pressure Humidity
    00:00 +8°C° 0 mm 2 mps 758 mmHg 87%
    01:00 +7°C° 0 mm 2 mps 758 mmHg 87%
    02:00 +7°C° 0 mm 1 mps 758 mmHg 86%
    03:00 +7°C° 0 mm 1 mps 758 mmHg 86%
    04:00 +7°C° 0 mm 1 mps 758 mmHg 85%
    05:00 +8°C° 0 mm 1 mps 758 mmHg 85%
    06:00 +10°C° 0 mm 1 mps 758 mmHg 77%
    07:00 +12°C° 0 mm 1 mps 758 mmHg 70%
    08:00 +13°C° 0 mm 2 mps 758 mmHg 63%
    09:00 +14°C° 0 mm 3 mps 757 mmHg 57%
    10:00 +16°C° 0 mm 3 mps 757 mmHg 51%
    11:00 +18°C° 0 mm 4 mps 756 mmHg 45%
    12:00 +17°C° 0 mm 5 mps 755 mmHg 45%
    13:00 +19°C° 0 mm 5 mps 755 mmHg 45%
    14:00 +20°C° 0 mm 6 mps 754 mmHg 46%
    15:00 +20°C° 0 mm 5 mps 754 mmHg 48%
    16:00 +20°C° 0 mm 5 mps 754 mmHg 51%
    17:00 +19°C° 0 mm 4 mps 753 mmHg 54%
    18:00 +17°C° 1.1 mm 4 mps 754 mmHg 67%
    19:00 +13°C° 1.1 mm 4 mps 754 mmHg 81%
    20:00 +11°C° 1.1 mm 4 mps 754 mmHg 95%
    21:00 +10°C° 0.4 mm 4 mps 755 mmHg 94%
    22:00 +9°C° 0.4 mm 3 mps 756 mmHg 94%
    23:00 +8°C° 0.4 mm 3 mps 756 mmHg 93%
    Show more